Sabadell, Spain

1:24 PM CET en Febrero 17, 2019 (GMT +0100)
Sabadell

Tiempo Historia de LELL - Febrero, 2019

Change the Weather History Date:

Lunes, Febrero 11, 2019

  Actual Average (LEBL) Record (LEBL)
Temperature  
Temperatura media 53 ° F -  
Temperatura máxima 60 ° F 56 ° F 62 ° F (2000)
Temperatura mínima 46 ° F 42 ° F 35 ° F (1999)
Degree Days  
Grados día de calefacción 12    
Growing Degree Days 3 (Base 50)    
Moisture  
Punto de rocío 42 ° F    
Average Humidity 69    
Maximum Humidity 93    
Minimum Humidity 36    
Precipitación  
Precipitación 0.00 pul - - ()
Presión al nivel del mar  
Presión al nivel del mar 30.25 pul    
Viento  
Velocidad del viento 3 mph ()    
Velocidad máxima del viento 10 mph    
Max Gust Speed -    
Visibilidad 6.2 Millas    
Eventos      
Averages and records for this station are not official NWS values.
T = Trace of Precipitation, MM = Missing Value Source: Averaged Metar Reports

Daily Weather History Graph

Daily Weather History Graph

Search for Another Location

Airport or City:

Astronomía

Feb. 11, 2019 Salida Puesta
Hora real 7:52 AM CET 6:19 PM CET
Crepúsculo civil 7:23 AM CET 6:48 PM CET
Crepúsculo náutico 6:51 AM CET 7:21 PM CET
Crepúsculo astronómico 6:19 AM CET 7:53 PM CET
Luna 11:13 AM CET (2/11) Sin puesta de luna
Horas de luz 11h 24m
Horas de luz
10h 27m
Creciente, 35% of the Moon is Illuminated
Feb 11
Creciente
Feb 12
Cuarto creciente
Feb 19
Luna llena
Feb 26
Cuarto menguante
Mar 6
Nueva

Hourly Weather History & Observations

Hora (CET) Temp. Vientos helados Punto de rocío Humedad Presión Visibilidad Wind Dir Velocidad del viento Velocidad de ráfagas Precip Eventos Condiciones
12:00 AM 50.0 ° F - 46.4 ° F 87% 30.09 pul 6.2 mi Variable 2.3 mph - N/A   Desconocido
12:30 AM 48.2 ° F - 46.4 ° F 93% 30.09 pul 6.2 mi SO 1.2 mph - N/A   Desconocido
1:00 AM 48.2 ° F - 44.6 ° F 87% 30.09 pul 6.2 mi ONO 3.5 mph - N/A   Desconocido
1:30 AM 48.2 ° F - 44.6 ° F 87% 30.12 pul 6.2 mi ONO 4.6 mph - N/A   Desconocido
2:00 AM 48.2 ° F - 44.6 ° F 87% 30.12 pul 6.2 mi ONO 4.6 mph - N/A   Desconocido
2:30 AM 50.0 ° F - 42.8 ° F 76% 30.12 pul 6.2 mi Sin viento Sin viento - N/A   Desconocido
3:00 AM 48.2 ° F - 41.0 ° F 76% 30.12 pul 6.2 mi Variable 2.3 mph - N/A   Desconocido
3:30 AM 48.2 ° F - 42.8 ° F 82% 30.12 pul 6.2 mi ONO 3.5 mph - N/A   Desconocido
4:00 AM 50.0 ° F - 44.6 ° F 82% 30.15 pul 6.2 mi Variable 2.3 mph - N/A   Desconocido
4:30 AM 50.0 ° F - 44.6 ° F 82% 30.15 pul 6.2 mi Sin viento Sin viento - N/A   Desconocido
5:00 AM 50.0 ° F - 42.8 ° F 76% 30.15 pul 6.2 mi Variable 1.2 mph - N/A   Desconocido
5:30 AM 48.2 ° F - 42.8 ° F 82% 30.15 pul 6.2 mi Variable 1.2 mph - N/A   Desconocido
6:00 AM 48.2 ° F - 41.0 ° F 76% 30.15 pul 6.2 mi Oeste 5.8 mph - N/A   Desconocido
6:30 AM 50.0 ° F - 41.0 ° F 71% 30.18 pul 6.2 mi Oeste 5.8 mph - N/A   Desconocido
7:00 AM 50.0 ° F - 41.0 ° F 71% 30.18 pul 6.2 mi Oeste 3.5 mph - N/A   Desconocido
7:30 AM 48.2 ° F - 41.0 ° F 76% 30.21 pul 6.2 mi Variable 1.2 mph - N/A   Desconocido
8:00 AM 46.4 ° F - 41.0 ° F 81% 30.21 pul 6.2 mi Sin viento Sin viento - N/A   Nubes dispersas
8:30 AM 46.4 ° F - 41.0 ° F 81% 30.21 pul 6.2 mi Sin viento Sin viento - N/A   Nubes dispersas
9:00 AM 46.4 ° F - 41.0 ° F 81% 30.24 pul 6.2 mi SO 2.3 mph - N/A   Nubes dispersas
9:30 AM 48.2 ° F - 41.0 ° F 76% 30.27 pul 6.2 mi SSO 3.5 mph - N/A   Muy nublado
10:00 AM 50.0 ° F - 41.0 ° F 71% 30.27 pul 6.2 mi Variable 2.3 mph - N/A   Muy nublado
10:30 AM 51.8 ° F - 39.2 ° F 62% 30.27 pul 6.2 mi Oeste 9.2 mph - N/A   Muy nublado
11:00 AM 53.6 ° F - 41.0 ° F 62% 30.27 pul 6.2 mi Oeste 8.1 mph - N/A   Nubes dispersas
11:30 AM 53.6 ° F - 39.2 ° F 58% 30.30 pul 6.2 mi Oeste 6.9 mph - N/A   Nubes dispersas
12:00 PM 57.2 ° F - 41.0 ° F 55% 30.30 pul 6.2 mi SO 4.6 mph - N/A   Nubes dispersas
12:30 PM 57.2 ° F - 41.0 ° F 55% 30.30 pul 6.2 mi Oeste 3.5 mph - N/A   Parcialmente nublado
1:00 PM 57.2 ° F - 39.2 ° F 51% 30.30 pul 6.2 mi OSO 4.6 mph - N/A   Parcialmente nublado
1:30 PM 59.0 ° F - 37.4 ° F 45% 30.30 pul 6.2 mi SO 2.3 mph - N/A   Parcialmente nublado
2:00 PM 60.8 ° F - 37.4 ° F 42% 30.27 pul 6.2 mi SSO 3.5 mph - N/A   Parcialmente nublado
3:00 PM 59.0 ° F - 33.8 ° F 39% 30.27 pul 6.2 mi Oeste 5.8 mph - N/A   Parcialmente nublado
3:30 PM 60.8 ° F - 35.6 ° F 39% 30.27 pul 6.2 mi OSO 6.9 mph - N/A   Parcialmente nublado
4:00 PM 60.8 ° F - 37.4 ° F 42% 30.27 pul 6.2 mi OSO 6.9 mph - N/A   Parcialmente nublado
4:30 PM 60.8 ° F - 37.4 ° F 42% 30.27 pul 6.2 mi Variable 2.3 mph - N/A   Parcialmente nublado
5:00 PM 60.8 ° F - 33.8 ° F 36% 30.27 pul 6.2 mi SO 3.5 mph - N/A   Parcialmente nublado
5:30 PM 59.0 ° F - 42.8 ° F 55% 30.27 pul 6.2 mi SE 10.4 mph - N/A   Parcialmente nublado
6:00 PM 57.2 ° F - 42.8 ° F 59% 30.30 pul 6.2 mi SE 8.1 mph - N/A   Parcialmente nublado
6:30 PM 55.4 ° F - 42.8 ° F 63% 30.30 pul 6.2 mi Sur 5.8 mph - N/A   Desconocido
7:00 PM 53.6 ° F - 42.8 ° F 67% 30.30 pul 6.2 mi Variable 1.2 mph - N/A   Desconocido
7:30 PM 53.6 ° F - 42.8 ° F 67% 30.33 pul 6.2 mi Sin viento Sin viento - N/A   Desconocido
8:00 PM 51.8 ° F - 44.6 ° F 76% 30.33 pul 6.2 mi NE 4.6 mph - N/A   Desconocido
8:30 PM 51.8 ° F - 44.6 ° F 76% 30.36 pul - NNE 4.6 mph - N/A   Despejado
9:00 PM 50.0 ° F - 44.6 ° F 82% 30.36 pul 6.2 mi NNE 4.6 mph - N/A   Desconocido
9:30 PM 50.0 ° F - 44.6 ° F 82% 30.39 pul 6.2 mi NNE 5.8 mph - N/A   Desconocido
10:00 PM 50.0 ° F - 42.8 ° F 76% 30.39 pul 6.2 mi NNE 4.6 mph - N/A   Desconocido
10:30 PM 50.0 ° F - 42.8 ° F 76% 30.39 pul 6.2 mi Norte 3.5 mph - N/A   Nubes dispersas
11:00 PM 46.4 ° F 43.5 ° F 42.8 ° F 87% 30.39 pul 6.2 mi Oeste 5.8 mph - N/A   Muy nublado
11:30 PM 46.4 ° F 45.2 ° F 42.8 ° F 87% 30.42 pul 6.2 mi Oeste 3.5 mph - N/A   Muy nublado